FHV1 KBNA-KMDW

Flight info

Callsign FHV1
Flight time N/A
Altitude 37000
Route KRSTA4 OLSIE IIU DROSE FISSK7
Aircraft B738/M-SDE2E3FGHIRWXY/LB1

Departure

Time 2026-05-03 23:27
Airport Nashville International Airport (KBNA)

Arrival

Time N/A
Airport Chicago Midway International Airport (KMDW)
Time Latitude Longitude Altitude Speed Heading
2026-05-03 23:06 36.12829 -86.66885 568 ft 0 kts 255°
2026-05-03 23:18 36.12833 -86.66868 568 ft 3 kts 249°
2026-05-03 23:18 36.12842 -86.66846 570 ft 3 kts 228°
2026-05-03 23:19 36.12855 -86.66834 572 ft 3 kts 180°
2026-05-03 23:19 36.12864 -86.66837 570 ft 1 kts 131°
2026-05-03 23:21 36.12861 -86.66832 570 ft 4 kts 131°
2026-05-03 23:21 36.12813 -86.66789 568 ft 12 kts 157°
2026-05-03 23:21 36.12718 -86.66821 569 ft 17 kts 226°
2026-05-03 23:22 36.12726 -86.67045 570 ft 13 kts 310°
2026-05-03 23:22 36.12782 -86.67128 568 ft 12 kts 310°
2026-05-03 23:22 36.12836 -86.67200 569 ft 9 kts 313°
2026-05-03 23:23 36.12850 -86.67272 572 ft 9 kts 242°
2026-05-03 23:23 36.12805 -86.67327 573 ft 9 kts 223°
2026-05-03 23:23 36.12749 -86.67393 573 ft 14 kts 229°
2026-05-03 23:23 36.12774 -86.67508 573 ft 19 kts 314°
2026-05-03 23:24 36.12878 -86.67645 570 ft 24 kts 313°
2026-05-03 23:24 36.12987 -86.67787 575 ft 23 kts 314°
2026-05-03 23:24 36.13098 -86.67920 576 ft 20 kts 336°
2026-05-03 23:24 36.13233 -86.67887 571 ft 20 kts 17°
2026-05-03 23:25 36.13363 -86.67839 576 ft 19 kts 16°
2026-05-03 23:25 36.13488 -86.67790 576 ft 19 kts 18°
2026-05-03 23:25 36.13623 -86.67737 575 ft 21 kts 18°
2026-05-03 23:25 36.13730 -86.67723 578 ft 13 kts 319°
2026-05-03 23:26 36.13763 -86.67819 580 ft 13 kts 287°
2026-05-03 23:26 36.13663 -86.67905 575 ft 46 kts 198°
2026-05-03 23:26 36.13064 -86.68143 575 ft 131 kts 197°
2026-05-03 23:26 36.12009 -86.68543 932 ft 168 kts 201°
2026-05-03 23:27 36.10887 -86.68982 2030 ft 175 kts 202°
2026-05-03 23:27 36.09949 -86.69893 2842 ft 183 kts 239°
2026-05-03 23:27 36.09263 -86.71351 3238 ft 209 kts 242°
2026-05-03 23:27 36.08476 -86.72987 3584 ft 230 kts 241°
2026-05-03 23:28 36.07639 -86.74713 4175 ft 240 kts 241°
2026-05-03 23:28 36.06922 -86.76658 4661 ft 256 kts 259°
2026-05-03 23:28 36.06890 -86.78839 5620 ft 254 kts 281°
2026-05-03 23:28 36.07306 -86.80960 6646 ft 255 kts 284°
2026-05-03 23:29 36.07757 -86.83099 7478 ft 259 kts 285°
2026-05-03 23:29 36.08521 -86.85113 8352 ft 264 kts 308°
2026-05-03 23:29 36.09941 -86.86551 9288 ft 269 kts 331°
2026-05-03 23:29 36.11769 -86.87134 10189 ft 278 kts 355°
2026-05-03 23:30 36.13734 -86.86860 10597 ft 302 kts
2026-05-03 23:30 36.15882 -86.86252 10786 ft 329 kts 10°
2026-05-03 23:30 36.18168 -86.85539 11151 ft 346 kts 11°
2026-05-03 23:30 36.20525 -86.84801 11907 ft 350 kts 10°
2026-05-03 23:31 36.22894 -86.84075 12743 ft 352 kts 10°
2026-05-03 23:31 36.25290 -86.83360 13533 ft 356 kts
2026-05-03 23:31 36.27708 -86.82652 14266 ft 359 kts
2026-05-03 23:31 36.30147 -86.81941 14774 ft 360 kts
2026-05-03 23:32 36.32581 -86.81183 14976 ft 366 kts 15°
2026-05-03 23:32 36.34845 -86.79636 15024 ft 379 kts 36°
2026-05-03 23:32 36.36713 -86.77264 15557 ft 387 kts 44°
2026-05-03 23:32 36.38496 -86.74764 16379 ft 387 kts 44°
2026-05-03 23:33 36.40272 -86.72243 17104 ft 390 kts 44°
2026-05-03 23:33 36.42069 -86.69699 17749 ft 394 kts 44°
2026-05-03 23:33 36.43898 -86.67130 18390 ft 398 kts 44°
2026-05-03 23:33 36.45749 -86.64542 18966 ft 401 kts 43°
2026-05-03 23:34 36.47617 -86.61940 19514 ft 405 kts 43°
2026-05-03 23:34 36.49479 -86.59348 20054 ft 409 kts 43°
2026-05-03 23:34 36.51387 -86.56693 20587 ft 413 kts 43°
2026-05-03 23:34 36.53306 -86.54021 21131 ft 417 kts 43°
2026-05-03 23:35 36.55250 -86.51309 21643 ft 421 kts 43°
2026-05-03 23:35 36.57225 -86.48598 22148 ft 423 kts 39°
2026-05-03 23:35 36.59568 -86.46489 22594 ft 412 kts 19°
2026-05-03 23:35 36.62197 -86.45119 23167 ft 410 kts 15°
2026-05-03 23:36 36.64881 -86.43820 23680 ft 414 kts 15°
2026-05-03 23:36 36.67571 -86.42500 24056 ft 418 kts 15°
2026-05-03 23:36 36.70240 -86.41152 24422 ft 421 kts 16°
2026-05-03 23:36 36.72961 -86.39746 24823 ft 425 kts 17°
2026-05-03 23:37 36.75648 -86.38162 25206 ft 430 kts 20°
2026-05-03 23:37 36.78325 -86.36433 25580 ft 435 kts 21°
2026-05-03 23:37 36.81002 -86.34649 25934 ft 437 kts 21°
2026-05-03 23:37 36.83698 -86.32850 26276 ft 441 kts 21°
2026-05-03 23:38 36.86415 -86.31050 26629 ft 444 kts 21°
2026-05-03 23:38 36.89153 -86.29251 26988 ft 446 kts 21°
2026-05-03 23:38 36.91913 -86.27451 27322 ft 449 kts 21°
2026-05-03 23:38 36.94687 -86.25647 27675 ft 451 kts 20°
2026-05-03 23:39 36.97485 -86.23829 28023 ft 454 kts 20°
2026-05-03 23:39 37.00297 -86.22003 28364 ft 456 kts 20°
2026-05-03 23:39 37.03121 -86.20167 28676 ft 459 kts 20°
2026-05-03 23:39 37.05961 -86.18319 28988 ft 461 kts 20°
2026-05-03 23:40 37.08827 -86.16451 29281 ft 464 kts 20°
2026-05-03 23:40 37.11656 -86.14604 29567 ft 466 kts 20°
2026-05-03 23:40 37.14540 -86.12719 29840 ft 469 kts 20°
2026-05-03 23:40 37.17444 -86.10819 30153 ft 470 kts 20°
2026-05-03 23:41 37.20346 -86.08920 30520 ft 469 kts 20°
2026-05-03 23:41 37.23237 -86.07028 30891 ft 468 kts 20°
2026-05-03 23:41 37.26156 -86.05251 31193 ft 466 kts 17°
2026-05-03 23:41 37.29111 -86.03583 31540 ft 464 kts 16°
2026-05-03 23:42 37.32068 -86.01965 31857 ft 463 kts 16°
2026-05-03 23:42 37.35027 -86.00355 32164 ft 463 kts 16°
2026-05-03 23:42 37.37983 -85.98733 32482 ft 463 kts 16°
2026-05-03 23:42 37.40930 -85.97101 32827 ft 462 kts 16°
2026-05-03 23:43 37.43863 -85.95462 33164 ft 461 kts 16°
2026-05-03 23:43 37.46793 -85.93817 33457 ft 461 kts 16°
2026-05-03 23:43 37.49721 -85.92167 33740 ft 461 kts 16°
2026-05-03 23:43 37.52607 -85.90538 34092 ft 459 kts 16°
2026-05-03 23:44 37.55525 -85.88889 34359 ft 459 kts 16°
2026-05-03 23:44 37.58438 -85.87243 34543 ft 460 kts 16°
2026-05-03 23:44 37.61367 -85.85588 34732 ft 461 kts 16°
2026-05-03 23:44 37.64295 -85.83930 34985 ft 460 kts 16°
2026-05-03 23:45 37.67221 -85.82272 35188 ft 461 kts 16°
2026-05-03 23:45 37.70152 -85.80611 35381 ft 462 kts 16°
2026-05-03 23:45 37.73084 -85.78947 35610 ft 462 kts 16°
2026-05-03 23:45 37.76020 -85.77279 35831 ft 462 kts 16°
2026-05-03 23:46 37.78957 -85.75610 36036 ft 463 kts 16°
2026-05-03 23:46 37.81890 -85.73942 36241 ft 463 kts 16°
2026-05-03 23:46 37.84835 -85.72265 36437 ft 463 kts 16°
2026-05-03 23:46 37.87779 -85.70587 36663 ft 463 kts 16°
2026-05-03 23:47 37.90722 -85.68910 36850 ft 464 kts 16°
2026-05-03 23:47 37.93668 -85.67228 37005 ft 465 kts 17°
2026-05-03 23:47 37.99581 -85.63848 37034 ft 472 kts 17°
2026-05-03 23:48 38.05604 -85.60404 37050 ft 476 kts 15°
2026-05-03 23:48 38.08714 -85.59090 37030 ft 466 kts
2026-05-03 23:48 38.11893 -85.58484 37039 ft 457 kts 356°
2026-05-03 23:49 38.18105 -85.59029 37050 ft 444 kts 343°
2026-05-03 23:49 38.24206 -85.60279 37030 ft 444 kts 343°
2026-05-03 23:50 38.29281 -85.61312 37022 ft 444 kts 343°
2026-05-03 23:50 38.36374 -85.62709 36992 ft 443 kts 344°
2026-05-03 23:51 38.42466 -85.63887 36993 ft 442 kts 344°
2026-05-03 23:51 38.48553 -85.65063 36996 ft 441 kts 344°
2026-05-03 23:52 38.54607 -85.66236 37000 ft 440 kts 344°
2026-05-03 23:52 38.60641 -85.67404 37002 ft 435 kts 343°
2026-05-03 23:53 38.66555 -85.68549 37022 ft 430 kts 343°
2026-05-03 23:53 38.72475 -85.69705 37016 ft 430 kts 343°
2026-05-03 23:54 38.78399 -85.70865 37008 ft 429 kts 343°
2026-05-03 23:54 38.84268 -85.72014 37006 ft 429 kts 343°
2026-05-03 23:55 38.90179 -85.73172 37002 ft 430 kts 343°
2026-05-03 23:55 38.96083 -85.74331 36854 ft 432 kts 343°
2026-05-03 23:56 38.98082 -85.74724 36651 ft 430 kts 343°
2026-05-03 23:56 39.00991 -85.75293 36406 ft 425 kts 343°
2026-05-03 23:56 39.03901 -85.75860 36154 ft 421 kts 343°
2026-05-03 23:56 39.06788 -85.76427 35909 ft 419 kts 343°
2026-05-03 23:57 39.09666 -85.76993 35664 ft 417 kts 343°
2026-05-03 23:57 39.12526 -85.77558 35422 ft 415 kts 343°
2026-05-03 23:57 39.15384 -85.78121 35187 ft 414 kts 342°
2026-05-03 23:57 39.18226 -85.78684 34948 ft 412 kts 342°
2026-05-03 23:58 39.21056 -85.79244 34713 ft 411 kts 342°
2026-05-03 23:58 39.23882 -85.79804 34480 ft 410 kts 342°
2026-05-03 23:58 39.26696 -85.80362 34247 ft 408 kts 342°
2026-05-03 23:58 39.29504 -85.80920 34020 ft 407 kts 342°
2026-05-03 23:59 39.32302 -85.81474 33750 ft 406 kts 342°
2026-05-03 23:59 39.35096 -85.82029 33482 ft 406 kts 342°
2026-05-03 23:59 39.37890 -85.82585 33217 ft 406 kts 342°
2026-05-03 23:59 39.40649 -85.83135 32949 ft 407 kts 342°
2026-05-04 00:00 39.43449 -85.83694 32674 ft 408 kts 342°
2026-05-04 00:00 39.46261 -85.84255 32415 ft 409 kts 342°
2026-05-04 00:00 39.49077 -85.84817 32163 ft 410 kts 342°
2026-05-04 00:00 39.51901 -85.85381 31906 ft 411 kts 342°
2026-05-04 00:01 39.54731 -85.85944 31653 ft 411 kts 342°
2026-05-04 00:01 39.57555 -85.86506 31390 ft 410 kts 342°
2026-05-04 00:01 39.60370 -85.87066 31138 ft 408 kts 342°
2026-05-04 00:01 39.63167 -85.87623 30889 ft 406 kts 342°
2026-05-04 00:02 39.65946 -85.88177 30648 ft 404 kts 342°
2026-05-04 00:02 39.68722 -85.88732 30394 ft 402 kts 342°
2026-05-04 00:02 39.71480 -85.89285 30140 ft 401 kts 342°
2026-05-04 00:02 39.74234 -85.89839 29877 ft 399 kts 342°
2026-05-04 00:03 39.76972 -85.90383 29593 ft 397 kts 342°
2026-05-04 00:03 39.79700 -85.90931 29309 ft 395 kts 342°
2026-05-04 00:03 39.82405 -85.91477 29037 ft 392 kts 342°
2026-05-04 00:03 39.85062 -85.92022 28755 ft 389 kts 341°
2026-05-04 00:04 39.87744 -85.92560 28487 ft 390 kts 342°
2026-05-04 00:04 39.90429 -85.93090 28211 ft 390 kts 342°
2026-05-04 00:04 39.93122 -85.93580 27943 ft 390 kts 342°
2026-05-04 00:04 39.95803 -85.94114 27681 ft 389 kts 342°
2026-05-04 00:05 39.98470 -85.94671 27419 ft 388 kts 342°
2026-05-04 00:05 40.01127 -85.95229 27166 ft 387 kts 342°
2026-05-04 00:05 40.03782 -85.95783 26904 ft 386 kts 342°
2026-05-04 00:05 40.06427 -85.96329 26648 ft 384 kts 342°
2026-05-04 00:06 40.09064 -85.96869 26396 ft 382 kts 342°
2026-05-04 00:06 40.11684 -85.97403 26144 ft 381 kts 342°
2026-05-04 00:06 40.14297 -85.97935 25890 ft 379 kts 342°
2026-05-04 00:06 40.16894 -85.98463 25639 ft 377 kts 343°
2026-05-04 00:07 40.19487 -85.98991 25393 ft 376 kts 343°
2026-05-04 00:07 40.22078 -85.99520 25158 ft 381 kts 343°
2026-05-04 00:07 40.24755 -86.00077 24922 ft 398 kts 343°
2026-05-04 00:07 40.27539 -86.00654 24682 ft 409 kts 343°
2026-05-04 00:08 40.30348 -86.01225 24438 ft 408 kts 344°
2026-05-04 00:08 40.33111 -86.01780 24199 ft 405 kts 344°
2026-05-04 00:08 40.35892 -86.02343 24013 ft 405 kts 344°
2026-05-04 00:08 40.38720 -86.02920 23964 ft 406 kts 344°
2026-05-04 00:09 40.41472 -86.03483 23944 ft 404 kts 344°
2026-05-04 00:09 40.44252 -86.04051 23946 ft 405 kts 344°
2026-05-04 00:09 40.47040 -86.04624 23939 ft 405 kts 345°
2026-05-04 00:09 40.49831 -86.05198 23939 ft 406 kts 345°
2026-05-04 00:10 40.52634 -86.05763 23936 ft 407 kts 346°
2026-05-04 00:10 40.55493 -86.05936 23940 ft 414 kts 354°
2026-05-04 00:10 40.58377 -86.05813 23944 ft 416 kts 355°
2026-05-04 00:10 40.61268 -86.05661 23903 ft 416 kts 355°
2026-05-04 00:11 40.64164 -86.05543 23901 ft 415 kts 355°
2026-05-04 00:11 40.67015 -86.05465 23901 ft 414 kts 354°
2026-05-04 00:11 40.69839 -86.05397 23880 ft 396 kts 354°
2026-05-04 00:11 40.72540 -86.05332 23882 ft 379 kts 354°
2026-05-04 00:12 40.75121 -86.05270 23724 ft 364 kts 354°
2026-05-04 00:12 40.77652 -86.05215 22596 ft 367 kts 354°
2026-05-04 00:12 40.80243 -86.05168 21260 ft 376 kts 355°
2026-05-04 00:12 40.82877 -86.05114 19995 ft 381 kts 355°
2026-05-04 00:13 40.85543 -86.05054 18811 ft 384 kts 356°
2026-05-04 00:13 40.88210 -86.04990 17709 ft 383 kts 356°
2026-05-04 00:13 40.90852 -86.04997 16721 ft 373 kts 350°
2026-05-04 00:13 40.93301 -86.05885 15763 ft 360 kts 331°
2026-05-04 00:14 40.95344 -86.07701 14845 ft 351 kts 316°
2026-05-04 00:14 40.96958 -86.10081 13903 ft 346 kts 304°
2026-05-04 00:14 40.97696 -86.11748 13255 ft 345 kts 295°
2026-05-04 00:15 40.97838 -86.12174 13110 ft 344 kts 292°
2026-05-04 00:15 40.98597 -86.15123 12203 ft 339 kts 287°
2026-05-04 00:15 40.99261 -86.18083 11569 ft 335 kts 286°
2026-05-04 00:15 40.99914 -86.21083 11394 ft 338 kts 286°
2026-05-04 00:16 41.00567 -86.24056 11272 ft 336 kts 286°
2026-05-04 00:16 41.01227 -86.27016 11144 ft 333 kts 286°
2026-05-04 00:16 41.01893 -86.29959 11108 ft 333 kts 286°
2026-05-04 00:16 41.02560 -86.32895 11104 ft 333 kts 287°
2026-05-04 00:17 41.03230 -86.35840 11102 ft 333 kts 286°
2026-05-04 00:17 41.03888 -86.38737 11108 ft 332 kts 286°
2026-05-04 00:17 41.04555 -86.41678 11089 ft 334 kts 286°
2026-05-04 00:17 41.05322 -86.44561 11021 ft 328 kts 294°
2026-05-04 00:18 41.06357 -86.47194 10855 ft 315 kts 298°
2026-05-04 00:18 41.07431 -86.49653 10705 ft 301 kts 298°
2026-05-04 00:18 41.08456 -86.52021 10557 ft 290 kts 298°
2026-05-04 00:18 41.09425 -86.54324 10409 ft 280 kts 297°
2026-05-04 00:19 41.10344 -86.56554 10275 ft 271 kts 297°
2026-05-04 00:19 41.11214 -86.58685 10155 ft 262 kts 297°
2026-05-04 00:19 41.12066 -86.60773 10029 ft 253 kts 297°
2026-05-04 00:19 41.13095 -86.62617 9904 ft 248 kts 313°
2026-05-04 00:20 41.14390 -86.64121 9800 ft 247 kts 315°
2026-05-04 00:20 41.15699 -86.65601 9687 ft 249 kts 316°
2026-05-04 00:20 41.17031 -86.67105 9565 ft 253 kts 316°
2026-05-04 00:20 41.18382 -86.68634 9434 ft 254 kts 316°
2026-05-04 00:21 41.19722 -86.70155 9305 ft 253 kts 316°
2026-05-04 00:21 41.21056 -86.71675 9182 ft 252 kts 315°
2026-05-04 00:21 41.22370 -86.73174 9059 ft 251 kts 315°
2026-05-04 00:21 41.23696 -86.74689 8940 ft 250 kts 315°
2026-05-04 00:22 41.25014 -86.76199 8821 ft 250 kts 315°
2026-05-04 00:22 41.26328 -86.77704 8707 ft 249 kts 315°
2026-05-04 00:22 41.27640 -86.79208 8590 ft 249 kts 315°
2026-05-04 00:22 41.28948 -86.80710 8473 ft 248 kts 315°
2026-05-04 00:23 41.30255 -86.82213 8349 ft 248 kts 314°
2026-05-04 00:23 41.31557 -86.83715 8232 ft 247 kts 315°
2026-05-04 00:23 41.32865 -86.85212 8114 ft 248 kts 314°
2026-05-04 00:23 41.34182 -86.86722 8006 ft 249 kts 315°
2026-05-04 00:24 41.35490 -86.88218 7876 ft 247 kts 314°
2026-05-04 00:24 41.36780 -86.89706 7757 ft 243 kts 314°
2026-05-04 00:24 41.38065 -86.91200 7643 ft 250 kts 314°
2026-05-04 00:24 41.39370 -86.92706 7528 ft 252 kts 314°
2026-05-04 00:25 41.40682 -86.94248 7410 ft 251 kts 313°
2026-05-04 00:25 41.41971 -86.95819 7287 ft 251 kts 312°
2026-05-04 00:25 41.43259 -86.97395 7167 ft 250 kts 312°
2026-05-04 00:25 41.44544 -86.98965 7048 ft 250 kts 312°
2026-05-04 00:26 41.45782 -87.00585 6918 ft 247 kts 302°
2026-05-04 00:26 41.46598 -87.02549 6808 ft 241 kts 292°
2026-05-04 00:26 41.47340 -87.04559 6701 ft 241 kts 292°
2026-05-04 00:26 41.48091 -87.06562 6585 ft 241 kts 292°
2026-05-04 00:27 41.48831 -87.08531 6484 ft 240 kts 292°
2026-05-04 00:27 41.49589 -87.10534 6360 ft 243 kts 292°
2026-05-04 00:27 41.50347 -87.12544 6240 ft 241 kts 292°
2026-05-04 00:27 41.51105 -87.14533 6107 ft 242 kts 298°
2026-05-04 00:28 41.52316 -87.16109 6074 ft 247 kts 321°
2026-05-04 00:28 41.53869 -87.17148 6046 ft 251 kts 332°
2026-05-04 00:28 41.55514 -87.17990 6057 ft 255 kts 333°
2026-05-04 00:28 41.57211 -87.18793 6026 ft 260 kts 334°
2026-05-04 00:29 41.58912 -87.19597 6030 ft 259 kts 333°
2026-05-04 00:29 41.60607 -87.20415 6027 ft 258 kts 333°
2026-05-04 00:29 41.62298 -87.21244 6028 ft 259 kts 333°
2026-05-04 00:29 41.63964 -87.22069 6014 ft 259 kts 333°
2026-05-04 00:30 41.65641 -87.22906 6007 ft 254 kts 333°
2026-05-04 00:30 41.67257 -87.23709 5943 ft 240 kts 333°
2026-05-04 00:30 41.68775 -87.24462 5799 ft 226 kts 332°
2026-05-04 00:30 41.70233 -87.25191 5477 ft 222 kts 332°
2026-05-04 00:31 41.71682 -87.25927 5101 ft 223 kts 331°
2026-05-04 00:31 41.73133 -87.26660 4738 ft 222 kts 331°
2026-05-04 00:31 41.74571 -87.27381 4387 ft 221 kts 331°
2026-05-04 00:31 41.75997 -87.28128 4017 ft 219 kts 328°
2026-05-04 00:32 41.77359 -87.28968 3651 ft 218 kts 327°
2026-05-04 00:32 41.78730 -87.29832 3262 ft 219 kts 326°
2026-05-04 00:32 41.80101 -87.30693 3067 ft 219 kts 326°
2026-05-04 00:32 41.81509 -87.31577 3048 ft 225 kts 327°
2026-05-04 00:33 41.82931 -87.32464 3021 ft 224 kts 327°
2026-05-04 00:33 41.84898 -87.35107 3017 ft 194 kts 281°
2026-05-04 00:33 41.85071 -87.36869 3016 ft 190 kts 267°
2026-05-04 00:34 41.85067 -87.38640 2998 ft 190 kts 266°
2026-05-04 00:34 41.85054 -87.40406 3006 ft 189 kts 266°
2026-05-04 00:34 41.85047 -87.42159 3007 ft 187 kts 266°
2026-05-04 00:34 41.85037 -87.43911 3011 ft 188 kts 266°
2026-05-04 00:35 41.85029 -87.45688 3013 ft 192 kts 266°
2026-05-04 00:35 41.85025 -87.47488 3004 ft 194 kts 266°
2026-05-04 00:35 41.85022 -87.49272 3003 ft 194 kts 267°
2026-05-04 00:35 41.85020 -87.51107 3009 ft 195 kts 267°
2026-05-04 00:36 41.85017 -87.52905 2990 ft 196 kts 267°
2026-05-04 00:36 41.85014 -87.54730 2992 ft 196 kts 267°
2026-05-04 00:36 41.84961 -87.56546 3007 ft 195 kts 264°
2026-05-04 00:36 41.84878 -87.58353 3005 ft 191 kts 264°
2026-05-04 00:37 41.84800 -87.60056 2997 ft 174 kts 264°
2026-05-04 00:37 41.84724 -87.61628 2836 ft 167 kts 263°
2026-05-04 00:37 41.84648 -87.63151 2635 ft 161 kts 263°